Flag for Switzerland Weather past 2 weeks in Lugano, Switzerland

Now
32 °F

Passing clouds.


Feels Like: 32 °F
Forecast: 20 / 42 °F
Wind: 1 mph from North

Location: Lugano Airport

Current Time: Jan 27, 2015 at 10:22:55 AM

Latest Report: Jan 27, 2015 at 9:50 AM


Visibility: N/A

Pressure: 29.98 "Hg

Humidity: 75%

Dew point: 25 °F

Location of LuganoLocation

Historic Weather in Lugano — Graph

°F

Lugano temperature yesterday

Maximum temperature yesterday: 45 °F (at 11:50 AM)
Minimum temperature yesterday: 28 °F (at 5:50 AM)
Average temperature yesterday: 37 °F

Past Weeks' High & Low Weather Summary

 TemperatureHumidityPressure
High55 °F (Jan 12, 1:20 PM)100% (Jan 14, 11:50 PM)30.39 "Hg (Jan 14, 11:50 PM)
Low27 °F (Jan 13, 6:20 AM)21% (Jan 25, 4:20 PM)29.77 "Hg (Jan 24, 3:50 PM)
Average39 °F77%30.01 "Hg
* Reported Jan 12 9:20 AM — Jan 27 9:20 AM, Lugano, Weather by CustomWeather, © 2014

Note: Actual official high and low records may vary slightly from our data, if they occured in-between our weather recording intervals... More about our weather records

Advertising

Lugano weather history for previous 24 hours

 ConditionsComfort  
Time TempWeatherWind HumidityBarometerVisibility
9:20 AM
Jan 27
30 °FPassing clouds.1 mph75%30.01 "HgN/A
8:50 AM28 °FPassing clouds.1 mph80%30.01 "HgN/A
8:20 AM28 °FPassing clouds.2 mph80%29.98 "HgN/A
7:50 AM27 °FPassing clouds.1 mph86%30.01 "HgN/A
7:20 AM27 °FPassing clouds.1 mph86%29.98 "HgN/A
6:50 AM27 °FPassing clouds.1 mph86%30.01 "HgN/A
6:20 AM27 °FClear.1 mph86%30.01 "Hg10 mi
5:50 AM27 °FClear.2 mph86%30.01 "Hg10 mi
5:20 AM27 °FClear.1 mph86%30.01 "Hg10 mi
4:50 AM28 °FClear.3 mph80%30.04 "Hg10 mi
4:20 AM27 °FClear.1 mph86%30.04 "Hg10 mi
3:50 AM28 °FClear.2 mph86%30.04 "Hg10 mi
3:20 AM28 °FClear.2 mph86%30.07 "Hg10 mi
2:50 AM28 °FChilly.2 mph80%30.07 "HgN/A
2:20 AM30 °FClear.2 mph80%30.07 "HgN/A
1:50 AM28 °FChilly.1 mph80%30.09 "HgN/A
1:20 AM28 °FClear.2 mph86%30.09 "Hg10 mi
12:50 AM30 °FClear.1 mph86%30.12 "Hg10 mi
12:20 AM30 °FChilly.1 mph80%30.12 "HgN/A
11:50 PM
Jan 26
32 °FClear.1 mph80%30.12 "HgN/A
11:20 PM34 °FChilly.2 mph70%30.12 "HgN/A
10:50 PM34 °FClear.2 mph75%30.12 "HgN/A
10:20 PM32 °FClear.1 mph80%30.12 "Hg10 mi
9:50 PM34 °FClear.1 mph75%30.12 "Hg10 mi
9:20 PM34 °FClear.No wind75%30.15 "Hg10 mi
8:50 PM34 °FClear.No wind75%30.15 "Hg10 mi
8:20 PM36 °FClear.No wind70%30.15 "Hg10 mi
7:50 PM36 °FClear.1 mph70%30.15 "Hg10 mi
7:20 PM37 °FClear.2 mph56%30.15 "Hg10 mi
6:50 PM37 °FPassing clouds.2 mph56%30.15 "HgN/A
6:20 PM39 °FPassing clouds.2 mph52%30.15 "HgN/A
5:50 PM39 °FClear.2 mph56%30.15 "Hg10 mi
5:20 PM41 °FPassing clouds.2 mph45%30.15 "HgN/A
4:50 PM43 °FPartly sunny.3 mph42%30.15 "HgN/A
4:20 PM43 °FSunny.2 mph39%30.15 "Hg10 mi
3:50 PM45 °FBroken clouds.3 mph39%30.15 "HgN/A
3:20 PM45 °FBroken clouds.3 mph37%30.15 "HgN/A
2:50 PM45 °FScattered clouds.3 mph34%30.15 "HgN/A
2:20 PM45 °FPassing clouds.6 mph37%30.18 "HgN/A
1:50 PM45 °FSunny.7 mph34%30.18 "Hg10 mi
1:20 PM45 °FPassing clouds.6 mph34%30.21 "HgN/A
12:50 PM45 °FPassing clouds.5 mph34%30.21 "HgN/A
12:20 PM45 °FPassing clouds.5 mph29%30.24 "HgN/A
11:50 AM45 °FSunny.2 mph34%30.24 "Hg10 mi
11:20 AM41 °FSunny.2 mph45%30.24 "Hg10 mi
10:50 AM37 °FSunny.2 mph52%30.24 "Hg10 mi
10:20 AM36 °FSunny.1 mph56%30.27 "Hg10 mi
Weather by CustomWeather, © 2014

See weather overviewHow to use our weather pages